UWE-4

Last updated on Tue Aug 25 2026 00:03:14 GMT+0000 (Coordinated Universal Time)

1 43880U 18111E 26236.53339866 .00036871 00000+0 65113-3 0 9990 2 43880 97.5819 168.2810 0009918 81.4152 278.8223 15.50224981421352
UTC large
Height (km)
Speed (km/s)
/
Latitude / Longitude
Inclination (degrees)
Orbital Period (minutes)
Azimuth
Elevation
Range (km)
Doppler Factor

Next 0 passes for location: London (51.5072 / 0.1276)

No passes found over London.
UWE-4